This is the latest recevied weather packets stored in our database for station/object KA1AL. If no packets are shown the sender has not sent any weather packets the latest 10 day(s).
| Time | Temp. | Humidity | Pressure | Rain* | Wind** | Luminosity | Snow |
|---|---|---|---|---|---|---|---|
| 1777992085 | 17.78° C | 65% | 1005.8 hPa | 0 mm | - | 740 W/m² | - |
| 1777991783 | 17.78° C | 66% | 1005.9 hPa | 0 mm | - | 721 W/m² | - |
| 1777991480 | 17.22° C | 68% | 1006 hPa | 0 mm | - | 717 W/m² | - |
| 1777991177 | 16.11° C | 70% | 1006.1 hPa | 0 mm | - | 716 W/m² | - |
| 1777990874 | 16.11° C | 70% | 1005.9 hPa | 0 mm | - | 711 W/m² | - |
| 1777990572 | 15.56° C | 71% | 1005.9 hPa | 0 mm | - | 491 W/m² | - |
| 1777989965 | 15.56° C | 71% | 1006.2 hPa | 0 mm | - | 702 W/m² | - |
| 1777989662 | 15° C | 72% | 1006.2 hPa | 0 mm | - | 699 W/m² | - |
| 1777989358 | 13.89° C | 75% | 1006.2 hPa | 0 mm | - | 801 W/m² | - |
| 1777989055 | 13.89° C | 76% | 1006 hPa | 0 mm | - | 231 W/m² | - |
| 1777988750 | 13.89° C | 75% | 1006 hPa | 0 mm | - | 237 W/m² | - |
| 1777988449 | 13.89° C | 74% | 1006 hPa | 0 mm | - | 260 W/m² | - |
| 1777988144 | 13.33° C | 74% | 1006.1 hPa | 0 mm | - | 223 W/m² | - |
| 1777987840 | 13.89° C | 73% | 1006.2 hPa | 0 mm | - | 334 W/m² | - |
| 1777987537 | 13.89° C | 74% | 1006.1 hPa | 0 mm | - | 277 W/m² | - |
| 1777987235 | 13.89° C | 73% | 1006 hPa | 0 mm | - | 482 W/m² | - |
| 1777986931 | 13.89° C | 75% | 1006.3 hPa | 0 mm | - | 370 W/m² | - |
| 1777986630 | 13.89° C | 74% | 1006.4 hPa | 0 mm | - | 624 W/m² | - |
| 1777986327 | 13.33° C | 75% | 1006.4 hPa | 0 mm | - | 232 W/m² | - |
| 1777986026 | 12.78° C | 76% | 1006.4 hPa | 0 mm | - | 577 W/m² | - |
| 1777985721 | 12.78° C | 76% | 1006.4 hPa | 0 mm | - | 301 W/m² | - |
| 1777985418 | 12.22° C | 77% | 1006.3 hPa | 0 mm | - | 281 W/m² | - |
| 1777985115 | 12.22° C | 77% | 1006.4 hPa | 0 mm | - | 214 W/m² | - |
| 1777984812 | 12.22° C | 77% | 1006.6 hPa | 0 mm | - | 194 W/m² | - |
| 1777984508 | 12.78° C | 76% | 1006.4 hPa | 0 mm | - | 192 W/m² | - |
* Rain latest hour (hover to see other rain measurements)
** Current wind speed in m/s (hover to see current wind gust speed)